sat.trackr.live / text

‹ back to catalog

COSMOS 2460 (732)

NORAD 36402 · 2010-007C

PAYLOAD ACTIVE UNKNOWN

§ Identity

Operator
Country
CIS
Launch date
2010-03-01
Launch site
TYMSC
Launch vehicle
Mass (kg)
RCS (m²)
4.78

Purposes: nav

External: N2YO · Heavens-Above · Gunter

§ Orbital elements

Epoch: 2026-09-17T03:32:26.256768Z

Period
675.73 min
Inclination
65.3621°
Eccentricity
0.0002511
Mean motion
2.13101742 rev/d
Perigee alt
19,123.5 km
Apogee alt
19,136.3 km
Semi-major
25,508.0 km
B*
0.0000e+0
RAAN
311.3508°
Arg perigee
218.2925°
Mean anomaly
155.7385°
Rev number
12,869

§ Raw data

COSMOS 2460 (732)1 36402U 10007C   26260.14752612 -.00000047  00000+0  00000+0 0  99972 36402  65.3621 311.3508 0002511 218.2925 155.7385  2.13101742128690

JSON: /api/v1/satellites/36402 · /tle

For live sub-satellite position, see the globe view (requires WebGL).

§ Visibility from observer

Set your observer location to see the next 7 days of passes ≥ 10°. The values pass through the URL so the page stays shareable.

No JS? Fill the form by hand. The geolocation button needs JavaScript.